Regional Weather Roundup
Issued by NWS

Home | Current Version | Previous Version | Graphics & Text | Print | Product List | Glossary On
Versions: 1 2 3 4 5 6 7 8 9 10 11 12 13 14 15 16 17 18 19 20 21 22 23 24 25 26 27 28 29 30 31 32 33 34 35 36 37 38 39 40 41 42 43 44 45 46 47 48 49 50
000
ASUS43 KDMX 230408
RWRIA

WEATHER ROUNDUP FOR IOWA
NATIONAL WEATHER SERVICE DES MOINES IA
1100 PM CDT FRI JUL 22 2016

NOTE: "FAIR" INDICATES FEW OR NO CLOUDS BELOW 12,000 FEET WITH NO
SIGNIFICANT WEATHER AND/OR OBSTRUCTIONS TO VISIBILITY.

* - THESE STATIONS ARE NOT NWS STATIONS...THUS NOT UNDER NWS
QUALITY CONTROL.  THEY ALSO DO NOT REPORT WEATHER SUCH
AS PRECIPITATION OR FOG.

IAZ001>003-012>014-020>022-031>034-043>046-230500-
   NORTHWEST IOWA

CITY           SKY/WX    TMP DP  RH WIND       PRES   REMARKS
CARROLL *      CLOUDY    82  81  94 SE6       29.95S HX  95
CHEROKEE *     PTCLDY    82  81  96 E6        29.94F HX  94
DENISON *      PTCLDY    81  79  94 E8        29.93R HX  89
LE MARS *      PTCLDY    84  79  84 E3        29.93S HX  96
SHELDON *      CLOUDY    81  79  94 E8        29.94S HX  89
SPENCER        CLOUDY    81  77  88 E7        29.97R HX  88
STORM LAKE *   CLEAR     81  79  94 SE7       29.97S HX  89
$$

IAZ055>058-069>071-079>083-090>094-230500-
   SOUTHWEST IOWA

CITY           SKY/WX    TMP DP  RH WIND       PRES   REMARKS
ATLANTIC *     CLEAR     82  79  89 VRB7      29.93S HX  93
CLARINDA *       N/A     82  79  89 MISG      29.96R HX  93
COUNCIL BLFS *   N/A     82  81  94 SE10      29.93R HX  95
CRESTON *      CLEAR     81  77  89 SE8       29.97F HX  88
HARLAN  *      CLEAR     82  79  89 SE5       29.97R HX  93
LAMONI         CLEAR     80  77  90 S7        29.97S HX  87
RED OAK *      PTCLDY    82  79  89 S7        29.94R HX  93
SHENANDOAH *   MOCLDY    84  81  89 SE10      29.92F HX  98
$$

IAZ047>049-059>061-072>074-084-230500-
   CENTRAL IOWA

CITY           SKY/WX    TMP DP  RH WIND       PRES   REMARKS
AMES           CLEAR     80  80 100 E5        29.96S HX  89
ANKENY *         N/A    N/A N/A N/A MISG        N/A
BOONE *        CLEAR     81  79  94 E7        29.96F HX  89
CHARITON *       N/A    N/A N/A N/A MISG        N/A
DES MOINES     PTCLDY    84  78  82 SE7       29.95S HX  95
GRINNELL*      CLEAR     79  75  87 CALM      29.99S HX  82
KNOXVILLE *    CLEAR     81  77  89 SE6       29.96R HX  88
MARSHALLTOWN   CLEAR     78  77  96 E6        29.98R HX  81
NEWTON *       CLEAR     79  79 100 SE3       29.97S HX  83
PELLA *        CLEAR     79  76  90 SE5       29.98S HX  82
PERRY *          N/A     81  79  95 E5        29.96S HX  90
$$

IAZ004>006-015-016-023>025-035-036-230500-
   NORTH CENTRAL IOWA

CITY           SKY/WX    TMP DP  RH WIND       PRES   REMARKS
ALGONA *       CLOUDY    82  79  89 SE10      29.97S HX  93
ESTHERVILLE    PTCLDY    79  78  97 SE7       29.96F HX  83
FORT DODGE *   PTCLDY    81  79  94 SE7       29.98S HX  89
MASON CITY     MOCLDY    80  77  90 SE7       30.00S HX  87
FOREST CITY *    N/A     79  79 100 E3        29.99S HX  83
IOWA FALLS *     N/A     81  77  88 SE7       30.00F HX  87
$$

IAZ007>011-017>019-026>030-037>042-050>054-066-230500-
   NORTHEAST IOWA

CITY           SKY/WX    TMP DP  RH WIND       PRES   REMARKS
CEDAR RAPIDS   CLEAR     77  77 100 S5        29.98R
CHARLES CITY * CLEAR     79  79 100 E5        30.01S HX  83
CLINTON *      MOCLDY    78  76  93 CALM      29.99S HX  81
DECORAH *      CLEAR     79  79 100 CALM      30.00R HX  83
DUBUQUE        CLEAR     79  76  90 CALM      30.01R HX  83
MONTICELLO *   MOCLDY    79  77  94 CALM      29.99R HX  83
OELWEIN *      PTCLDY    77  77 100 SE3       30.01R
WATERLOO       CLEAR     80  76  87 CALM      29.98R HX  86
$$

IAZ064-065-067-068-078-230500-
   EAST CENTRAL IOWA

CITY           SKY/WX    TMP DP  RH WIND       PRES   REMARKS
DAVENPORT      CLEAR     76  74  93 CALM      29.99S
IOWA CITY      PTCLDY    80  77  90 SE3       29.99S HX  87
MT. PLEASANT * CLEAR     81  80  99 S5        29.99S HX  91
MUSCATINE *    CLEAR     79  77  94 CALM      29.98S HX  83
QUAD CITIES    CLEAR     80  76  87 S3        29.97S HX  86
$$

IAZ062-063-075>077-085>089-095>099-230500-
   SOUTHEAST IOWA

CITY           SKY/WX    TMP DP  RH WIND       PRES   REMARKS
BURLINGTON     CLOUDY    79  78  97 S5        29.99S HX  83
FAIRFIELD *    CLEAR     81  77  89 S7        29.98F HX  88
KEOKUK *       CLEAR     81  77  89 S3        29.99S HX  88
CENTERVILLE *    N/A     77  75  94 CALM      30.00S
OTTUMWA        CLEAR     77  74  90 S6        29.97F
WASHINGTON *   PTCLDY    79  79 100 SE6       29.99F HX  83
$$

ABBREVIATIONS USED IN REMARKS
   TC - TEMPERATURES IN CELSIUS
  WCI - WIND CHILL INDEX
   HX - HEAT INDEX
  VSB - VISIBILITY
$$





USA.gov is the U.S. government's official web portal to all federal, state and local government web resources and services.